OpenBCM V1.08-5-g2f4a (Linux)

Packet Radio Mailbox

IZ3LSV

[San Dona' di P. JN]

 Login: GUEST





  
CX2SA  > KEP      31.01.20 06:04l 86 Lines 3612 Bytes #999 (0) @ ARL
BID : ARLK007
Read: GUEST
Subj: ARLK007 Keplerian data
Path: IZ3LSV<IQ2LB<IQ5KG<IK1NHL<CX2SA
Sent: 200124/2243Z @:CX2SA.SAL.URY.SOAM #:23535 [Salto] FBB7.00e $:ARLK007
From: CX2SA@CX2SA.SAL.URY.SOAM
To  : KEP@ARL


ZCZC SK07
QST de W1AW
Keplerian Bulletin 7  ARLK007
From ARRL Headquarters
Newington, CT  January 24, 2020
To all radio amateurs

SB KEP ARL ARLK007
ARLK007 Keplerian data

Special thanks to AMSAT-NA (AMSAT.ORG) for the following Keplerian
data.

Decode 2-line elsets with the following key:
1 AAAAAU 00  0  0 BBBBB.BBBBBBBB  .CCCCCCCC  00000-0  00000-0 0  DDDZ
2 AAAAA EEE.EEEE FFF.FFFF GGGGGGG HHH.HHHH III.IIII JJ.JJJJJJJJKKKKKZ
KEY: A-CATALOGNUM B-EPOCHTIME C-DECAY D-ELSETNUM E-INCLINATION F-RAAN
G-ECCENTRICITY H-ARGPERIGEE I-MNANOM J-MNMOTION K-ORBITNUM Z-CHECKSUM

0 AO-07
1 7530U 74089B   20024.57153057 -.00000046 +00000-0 -30651-5 0  9996
2 7530 101.7800 355.2437 0011974 283.9547 191.8833 12.53641690067837
0 FO-29
1 24278U 96046B   20024.31235717 -.00000028 +00000-0 +64491-5 0  9995
2 24278 098.5658 153.2834 0350889 030.9420 331.1889 13.53094959157254
0 ISS
1 25544U 98067A   20024.61815439 -.00001919  00000-0 -26511-4 0  9996
2 25544  51.6424 343.7780 0005441 185.2752 347.2770 15.49099370209604
0 SO-50
1 27607U 02058C   20024.54000340 -.00000036 +00000-0 +15654-4 0  9996
2 27607 064.5555 097.4313 0065562 212.6364 147.0679 14.75604465919341
0 CO-55
1 27844U 03031E   20024.50743564 +.00000039 +00000-0 +37021-4 0  9993
2 27844 098.6836 034.4183 0010838 112.9549 247.2773 14.22217368859494
0 RS-22
1 27939U 03042A   20024.56759381  .00000014  00000-0  11124-4 0  9999
2 27939  98.0669 161.5166 0014346  92.3102 267.9744 14.66831500872775
0 RS-30
1 32953U 08025A   20024.44590664  .00000037  00000-0  19437-3 0  9990
2 32953  82.5034   8.0916 0019746  13.7055 346.4558 12.43093891529616
0 KKS-1
1 33499U 09002H   20024.53331041 +.00000069 +00000-0 +18184-4 0  9998
2 33499 098.3314 235.0622 0008247 221.1340 138.9247 14.75498058591215
0 AO-71
1 37854U 11061E   20024.57219134 +.00000666 +00000-0 +41503-4 0  9991
2 37854 101.7135 041.0449 0159396 132.5676 228.9116 15.06935639449656
0 AO-73
1 39444U 13066AE  20024.54589810 +.00000229 +00000-0 +34294-4 0  9997
2 39444 097.5574 032.8041 0058661 027.3443 333.0837 14.82049719331908
0 UKUBE 1
1 40074U 14037F   20024.42263243  .00000240  00000-0  35872-4 0  9999
2 40074  98.4507 204.1428 0003291 215.4422 144.6543 14.84179355300249
0 XW-2A
1 40903U 15049E   20024.48507463  .00001379  00000-0  33653-4 0  9994
2 40903  97.3107  73.2038 0015055  71.9871  35.0765 15.42549989244122
0 XW-2F
1 40910U 15049M   20024.52780781  .00000777  00000-0  41826-4 0  9995
2 40910  97.4660  30.0971 0015724 139.8677 339.0709 15.17664251240351
0 XW-2B
1 40911U 15049N   20024.49995420  .00000302  00000-0  19119-4 0  9994
2 40911  97.4733  28.4062 0014909 149.4567   1.8900 15.16040763240200
0 IO-86
1 40931U 15052B   20022.24229943  .00000646  00000-0  71676-6 0  9990
2 40931   5.9978 305.2532 0014232 354.0615   5.9774 14.76623875233462
0 CAS-4B
1 42759U 17034B   20024.54093288  .00000035  00000-0  15644-4 0  9991
2 42759  43.0189 103.1912 0011784 204.4549 288.0050 15.09726055144068
0 CAS-4A
1 42761U 17034D   20024.49067505  .00000033  00000-0  15483-4 0  9990
2 42761  43.0190 102.8600 0011657 205.4999 275.6402 15.09804149144055
0 AO-91
1 43017U 17073E   20024.32423663 +.00000234 +00000-0 +23588-4 0  9999
2 43017 097.7272 302.1381 0257883 162.8411 198.1726 14.78776452117717
0 AO-92
1 43137U 18004AC  20024.44212360 +.00000738 +00000-0 +33578-4 0  9999
2 43137 097.4635 096.4853 0008740 195.4098 164.6874 15.23838873112967

Keplerian bulletins are transmitted twice weekly from W1AW.  The
next scheduled transmission of these data will be Tuesday, January
28, 2020, at 2230z on Baudot and BPSK31.
NNNN


Read previous mail | Read next mail


 14.10.2025 05:02:43lGo back Go up